Location: Mauerstetten
(47.8989°N, 10.6737°E)
Time: 23:37:04
(UTC+01:00)

ISS - Visible Passes

Search period start: 14 November 2019 00:00
Search period end: 24 November 2019 00:00
Orbit: 412 x 421 km, 51.6° (Epoch: 15 November)

Date Brightness Start Highest point End Pass type
(mag) Time Alt. Az. Time Alt. Az. Time Alt. Az.
21 Nov -0.7 19:15:47 10° SSW 19:16:01 11° SSW 19:16:01 11° SSW visible
22 Nov -2.0 18:27:51 10° SSW 18:29:50 22° SSE 18:29:50 22° SSE visible
23 Nov -1.7 17:40:16 10° S 17:42:20 15° SE 17:43:34 13° ESE visible
23 Nov -1.3 19:15:17 10° WSW 19:16:29 20° WSW 19:16:29 20° WSW visible
